Time,TemperatureF,DewpointF,PressureIn,WindDirection,WindDirectionDegrees,WindSpeedMPH,WindSpeedGustMPH,Humidity,HourlyPrecipIn,Conditions,Clouds,dailyrainin,SoftwareType,DateUTC
2013-09-21 00:00:00,56.0,54.0,-100.00,WNW,295,0.0,1.0,95,0.00,,,-99.99,,2013-09-21 04:00:00,
2013-09-21 00:44:00,56.0,54.0,-100.00,WNW,295,0.0,1.0,95,0.00,,,-99.99,,2013-09-21 04:44:00,
2013-09-21 00:54:00,56.0,54.0,-100.00,WNW,295,0.0,1.0,95,0.00,,,-99.99,,2013-09-21 04:54:00,
2013-09-21 01:00:00,54.0,53.0,-100.00,NW,322,0.0,0.0,97,0.00,,,-99.99,,2013-09-21 05:00:00,
2013-09-21 01:44:00,54.0,53.0,-100.00,NW,322,0.0,0.0,97,0.00,,,-99.99,,2013-09-21 05:44:00,
2013-09-21 01:53:00,54.0,53.0,-100.00,NW,322,0.0,0.0,97,0.00,,,-99.99,,2013-09-21 05:53:00,
2013-09-21 02:00:00,53.0,53.0,-100.00,NW,322,0.0,0.0,98,0.00,,,-99.99,,2013-09-21 06:00:00,
2013-09-21 02:42:00,53.0,53.0,-100.00,NW,322,0.0,0.0,98,0.00,,,-99.99,,2013-09-21 06:42:00,
2013-09-21 02:53:00,53.0,53.0,-100.00,NW,322,0.0,0.0,98,0.00,,,-99.99,,2013-09-21 06:53:00,
2013-09-21 03:00:00,52.0,52.0,-100.00,NW,307,0.0,1.0,99,0.00,,,-99.99,,2013-09-21 07:00:00,
2013-09-21 03:42:00,52.0,52.0,-100.00,NW,307,0.0,1.0,99,0.00,,,-99.99,,2013-09-21 07:42:00,
2013-09-21 03:52:00,52.0,52.0,-100.00,NW,307,0.0,1.0,99,0.00,,,-99.99,,2013-09-21 07:52:00,
2013-09-21 05:00:00,53.0,53.0,-100.00,East,80,0.0,0.0,100,0.00,,,-99.99,,2013-09-21 09:00:00,
2013-09-21 05:43:00,53.0,53.0,-100.00,East,80,0.0,0.0,100,0.00,,,-99.99,,2013-09-21 09:43:00,
2013-09-21 05:54:00,53.0,53.0,-100.00,East,80,0.0,0.0,100,0.00,,,-99.99,,2013-09-21 09:54:00,
2013-09-21 06:00:00,54.0,54.0,-100.00,WSW,257,0.0,1.0,100,0.00,,,-99.99,,2013-09-21 10:00:00,
2013-09-21 06:42:00,54.0,54.0,-100.00,WSW,257,0.0,1.0,100,0.00,,,-99.99,,2013-09-21 10:42:00,
2013-09-21 06:53:00,54.0,54.0,-100.00,WSW,257,0.0,1.0,100,0.00,,,-99.99,,2013-09-21 10:53:00,
2013-09-21 07:00:00,54.0,54.0,-100.00,NNW,327,0.0,1.0,98,0.00,,,-99.99,,2013-09-21 11:00:00,
2013-09-21 07:42:00,54.0,54.0,-100.00,NNW,327,0.0,1.0,98,0.00,,,-99.99,,2013-09-21 11:42:00,
2013-09-21 07:52:00,54.0,54.0,-100.00,NNW,327,0.0,1.0,98,0.00,,,-99.99,,2013-09-21 11:52:00,
2013-09-21 08:00:00,59.0,58.0,-100.00,East,79,1.0,3.0,98,0.00,,,-99.99,,2013-09-21 12:00:00,
2013-09-21 08:42:00,59.0,58.0,-100.00,East,79,1.0,3.0,98,0.00,,,-99.99,,2013-09-21 12:42:00,
2013-09-21 08:52:00,59.0,58.0,-100.00,East,79,1.0,3.0,98,0.00,,,-99.99,,2013-09-21 12:52:00,
2013-09-21 09:00:00,70.0,62.0,-100.00,ESE,108,1.0,3.0,74,0.00,,,-99.99,,2013-09-21 13:00:00,
2013-09-21 09:42:00,70.0,62.0,-100.00,ESE,108,1.0,3.0,74,0.00,,,-99.99,,2013-09-21 13:42:00,
2013-09-21 09:53:00,70.0,62.0,-100.00,ESE,108,1.0,3.0,74,0.00,,,-99.99,,2013-09-21 13:53:00,
2013-09-21 10:00:00,73.0,64.0,-100.00,SSE,153,4.0,5.0,72,0.00,,,-99.99,,2013-09-21 14:00:00,
2013-09-21 10:42:00,73.0,64.0,-100.00,SSE,153,4.0,5.0,72,0.00,,,-99.99,,2013-09-21 14:42:00,
2013-09-21 10:52:00,73.0,64.0,-100.00,SSE,153,4.0,5.0,72,0.00,,,-99.99,,2013-09-21 14:52:00,
2013-09-21 11:00:00,75.0,63.0,-100.00,WSW,238,3.0,8.0,66,0.00,,,-99.99,,2013-09-21 15:00:00,
2013-09-21 11:45:00,75.0,63.0,-100.00,WSW,238,3.0,8.0,66,0.00,,,-99.99,,2013-09-21 15:45:00,
2013-09-21 11:55:00,75.0,63.0,-100.00,WSW,238,3.0,8.0,66,0.00,,,-99.99,,2013-09-21 15:55:00,
2013-09-21 12:00:00,76.0,59.0,-100.00,SW,214,3.0,8.0,56,0.00,,,-99.99,,2013-09-21 16:00:00,
2013-09-21 12:43:00,76.0,59.0,-100.00,SW,214,3.0,8.0,56,0.00,,,-99.99,,2013-09-21 16:43:00,
2013-09-21 12:54:00,76.0,59.0,-100.00,SW,214,3.0,8.0,56,0.00,,,-99.99,,2013-09-21 16:54:00,
2013-09-21 13:00:00,77.0,63.0,-100.00,SW,229,3.0,9.0,62,0.00,,,-99.99,,2013-09-21 17:00:00,
2013-09-21 13:43:00,77.0,63.0,-100.00,SW,229,3.0,9.0,62,0.00,,,-99.99,,2013-09-21 17:43:00,
2013-09-21 13:52:00,77.0,63.0,-100.00,SW,229,3.0,9.0,62,0.00,,,-99.99,,2013-09-21 17:52:00,
2013-09-21 14:00:00,77.0,59.0,-100.00,SW,234,1.0,8.0,54,0.00,,,-99.99,,2013-09-21 18:00:00,
2013-09-21 14:42:00,77.0,59.0,-100.00,SW,234,1.0,8.0,54,0.00,,,-99.99,,2013-09-21 18:42:00,
2013-09-21 14:52:00,77.0,59.0,-100.00,SW,234,1.0,8.0,54,0.00,,,-99.99,,2013-09-21 18:52:00,
2013-09-21 15:00:00,79.0,59.0,-100.00,West,270,1.0,8.0,50,0.00,,,-99.99,,2013-09-21 19:00:00,
2013-09-21 15:42:00,79.0,59.0,-100.00,West,270,1.0,8.0,50,0.00,,,-99.99,,2013-09-21 19:42:00,
2013-09-21 15:52:00,79.0,59.0,-100.00,West,270,1.0,8.0,50,0.00,,,-99.99,,2013-09-21 19:52:00,
2013-09-21 16:00:00,78.0,65.0,-100.00,ESE,111,2.0,7.0,65,0.00,,,-99.99,,2013-09-21 20:00:00,
2013-09-21 16:43:00,78.0,65.0,-100.00,ESE,111,2.0,7.0,65,0.00,,,-99.99,,2013-09-21 20:43:00,
2013-09-21 16:52:00,78.0,65.0,-100.00,ESE,111,2.0,7.0,65,0.00,,,-99.99,,2013-09-21 20:52:00,
2013-09-21 17:00:00,75.0,67.0,-100.00,SE,129,4.0,7.0,76,0.00,,,-99.99,,2013-09-21 21:00:00,
2013-09-21 17:45:00,75.0,67.0,-100.00,SE,129,4.0,7.0,76,0.00,,,-99.99,,2013-09-21 21:45:00,
2013-09-21 17:54:00,75.0,67.0,-100.00,SE,129,4.0,7.0,76,0.00,,,-99.99,,2013-09-21 21:54:00,
2013-09-21 18:00:00,71.0,67.0,-100.00,SE,137,2.0,11.0,88,0.00,,,-99.99,,2013-09-21 22:00:00,
2013-09-21 18:43:00,71.0,67.0,-100.00,SE,137,2.0,11.0,88,0.00,,,-99.99,,2013-09-21 22:43:00,
2013-09-21 18:53:00,71.0,67.0,-100.00,SE,137,2.0,11.0,88,0.00,,,-99.99,,2013-09-21 22:53:00,
2013-09-21 19:00:00,70.0,68.0,-100.00,NE,38,1.0,6.0,92,0.00,,,-99.99,,2013-09-21 23:00:00,
2013-09-21 19:42:00,70.0,68.0,-100.00,NE,38,1.0,6.0,92,0.00,,,-99.99,,2013-09-21 23:42:00,
2013-09-21 19:53:00,70.0,68.0,-100.00,NE,38,1.0,6.0,92,0.00,,,-99.99,,2013-09-21 23:53:00,
2013-09-21 20:00:00,70.0,68.0,-100.00,ENE,72,1.0,6.0,92,0.00,,,-99.99,,2013-09-22 00:00:00,
2013-09-21 20:43:00,70.0,68.0,-100.00,ENE,72,1.0,6.0,92,0.00,,,-99.99,,2013-09-22 00:43:00,
2013-09-21 20:52:00,70.0,68.0,-100.00,ENE,72,1.0,6.0,92,0.00,,,-99.99,,2013-09-22 00:52:00,
2013-09-21 21:00:00,70.0,68.0,-100.00,West,260,2.0,5.0,92,0.01,,,-99.99,,2013-09-22 01:00:00,
2013-09-21 21:42:00,70.0,68.0,-100.00,West,260,2.0,5.0,92,0.01,,,-99.99,,2013-09-22 01:42:00,
2013-09-21 21:52:00,70.0,68.0,-100.00,West,260,2.0,5.0,92,0.01,,,-99.99,,2013-09-22 01:52:00,
2013-09-21 22:00:00,68.0,67.0,-100.00,SSE,164,0.0,8.0,98,0.10,,,-99.99,,2013-09-22 02:00:00,
2013-09-21 22:42:00,68.0,67.0,-100.00,SSE,164,0.0,8.0,98,0.10,,,-99.99,,2013-09-22 02:42:00,
2013-09-21 22:52:00,68.0,67.0,-100.00,SSE,164,0.0,8.0,98,0.10,,,-99.99,,2013-09-22 02:52:00,
2013-09-21 23:00:00,-999.0,-99.9,-100.00,SSW,202,4.0,8.0,-999,-99.99,,,-99.99,,2013-09-22 03:00:00,
2013-09-21 23:45:00,68.0,68.0,-100.00,SSW,202,4.0,8.0,98,0.01,,,-99.99,,2013-09-22 03:45:00,
2013-09-21 23:54:00,68.0,68.0,-100.00,SSW,202,4.0,8.0,98,0.01,,,-99.99,,2013-09-22 03:54:00,